Change the Weather History Date:

Monday, February 10, 2014

  Actual Average Record
Temperature  
Mean Temperature 42 °F 46 °F  
Max Temperature 48 °F 57 °F 80 °F (1959)
Min Temperature 36 °F 36 °F 12 °F (1979)
Degree Days  
Heating Degree Days 23 19  
Month to date heating degree days 188 194  
Since 1 July heating degree days 1769 1834  
Cooling Degree Days 0 0  
Month to date cooling degree days 0 0  
Year to date cooling degree days 1 1  
Moisture  
Dew Point 34 °F    
Average Humidity 75    
Maximum Humidity 89    
Minimum Humidity 60    
Precipitation  
Precipitation T in 0.12 in 1.83 in (1973)
Month to date precipitation 1.31 1.24  
Year to date precipitation 5.28 5.26  
Snow  
Snow 0.00 in - - ()
Month to date snowfall 0.0  
Since 1 July snowfall T  
Snow Depth 0.00 in    
Sea Level Pressure  
Sea Level Pressure 30.16 in    
Wind  
Wind Speed 8 mph (NE)    
Max Wind Speed 15 mph    
Max Gust Speed 18 mph    
Visibility 10 miles    
Events Rain    
T = Trace of Precipitation, MM = Missing Value Source: NWS Daily Summary

Daily Weather History Graph

Daily Weather History Graph

Search for Another Location

Airport or City:

Trip Planner

Search our weather history database for the weather conditions in past years. The results will help you decide how hot, cold, wet, or windy it might be!

Date:

Astronomy

Feb. 10, 2014 Rise Set
Actual Time 6:59 AM EST 5:45 PM EST
Civil Twilight 6:33 AM EST 6:12 PM EST
Nautical Twilight 6:03 AM EST 6:42 PM EST
Astronomical Twilight 5:33 AM EST 7:11 PM EST
Moon 2:16 PM EST (2/10) 3:47 AM EST (2/10)
Length of Visible Light 11h 38m
Length of Day
10h 46m
Waxing Gibbous, 84% of the Moon is Illuminated
Feb 10
Waxing Gibbous
Feb 14
Full
Feb 22
Last Quarter
Mar 1
New
Mar 8
First Quarter

Hourly Weather History & Observations

Time (EST) Temp. Windchill Dew Point Humidity Pressure Visibility Wind Dir Wind Speed Gust Speed Precip Events Conditions
12:54 AM 48.0 °F - 42.1 °F 80% 30.04 in 10.0 mi SSW 6.9 mph - N/A   Mostly Cloudy
1:54 AM 48.0 °F - 41.0 °F 77% 30.02 in 10.0 mi SSW 8.1 mph - N/A   Clear
2:54 AM 45.0 °F 43.5 °F 39.9 °F 82% 30.04 in 10.0 mi West 3.5 mph - N/A   Clear
3:54 AM 44.1 °F 40.8 °F 39.9 °F 85% 30.05 in 10.0 mi West 5.8 mph - N/A   Clear
4:54 AM 44.1 °F - 41.0 °F 89% 30.05 in 8.0 mi Calm Calm - N/A   Clear
5:54 AM 44.1 °F - 41.0 °F 89% 30.08 in 9.0 mi Calm Calm - N/A   Clear
6:54 AM 43.0 °F 39.5 °F 37.9 °F 82% 30.09 in 10.0 mi North 5.8 mph - N/A   Clear
7:54 AM 44.1 °F 40.8 °F 37.0 °F 76% 30.11 in 10.0 mi North 5.8 mph - N/A   Clear
8:54 AM 45.0 °F 40.1 °F 37.0 °F 74% 30.15 in 10.0 mi NNE 9.2 mph - N/A   Clear
9:54 AM 46.0 °F 41.4 °F 37.0 °F 71% 30.19 in 10.0 mi NE 9.2 mph - N/A   Partly Cloudy
10:54 AM 46.9 °F - 37.0 °F 68% 30.18 in 10.0 mi ENE 9.2 mph - N/A   Mostly Cloudy
11:54 AM 48.0 °F - 35.1 °F 61% 30.18 in 10.0 mi North 11.5 mph - N/A   Mostly Cloudy
12:54 PM 46.9 °F - 34.0 °F 61% 30.15 in 10.0 mi NNE 11.5 mph - N/A   Overcast
1:54 PM 46.0 °F 41.4 °F 33.1 °F 61% 30.14 in 10.0 mi ENE 9.2 mph - N/A   Overcast
2:54 PM 46.9 °F - 34.0 °F 61% 30.14 in 10.0 mi NNE 9.2 mph - N/A   Mostly Cloudy
3:17 PM 46.4 °F 40.7 °F 33.8 °F 62% 30.13 in 10.0 mi NNE 12.7 mph - N/A   Mostly Cloudy
3:24 PM 46.4 °F 41.1 °F 33.8 °F 62% 30.13 in 10.0 mi NE 11.5 mph - N/A   Scattered Clouds
3:54 PM 45.0 °F 40.1 °F 32.0 °F 60% 30.15 in 10.0 mi NNE 9.2 mph - N/A   Overcast
4:54 PM 43.0 °F 36.8 °F 30.0 °F 60% 30.17 in 10.0 mi ENE 11.5 mph - N/A   Overcast
5:54 PM 41.0 °F 33.5 °F 28.9 °F 62% 30.20 in 10.0 mi NE 13.8 mph - N/A   Overcast
6:54 PM 39.9 °F 34.5 °F 28.9 °F 65% 30.22 in 10.0 mi ENE 8.1 mph - N/A   Overcast
7:54 PM 39.0 °F 32.3 °F 28.9 °F 67% 30.24 in 10.0 mi NE 10.4 mph - N/A   Overcast
8:54 PM 39.0 °F 31.4 °F 28.9 °F 67% 30.24 in 10.0 mi NE 12.7 mph - N/A   Overcast
9:54 PM 37.9 °F 31.5 °F 30.9 °F 76% 30.25 in 10.0 mi NE 9.2 mph - 0.00 in Rain Light Rain
10:54 PM 37.0 °F 29.8 °F 30.9 °F 79% 30.26 in 10.0 mi NE 10.4 mph - 0.00 in   Overcast
11:39 PM 35.6 °F 28.0 °F 30.2 °F 81% 30.25 in 7.0 mi ENE 10.4 mph - 0.00 in   Overcast
11:46 PM 35.6 °F 28.0 °F 30.2 °F 81% 30.25 in 6.0 mi ENE 10.4 mph - 0.00 in   Overcast
11:54 PM 36.0 °F 28.0 °F 30.9 °F 82% 30.26 in 6.0 mi NE 11.5 mph - 0.00 in   Overcast